Knows.nl

Technical website intelligence, screenshots, and crawl history.

Full Index

Showing up to 100 newest rows before ID 5663789.

IDDomainStatusLast visitURL
5663788 infokantorpos.bisnis2000.com 404 2026-08-27 14:50:16 https://infokantorpos.bisnis2000.com/
5663785 professionals.nl 200 2026-08-27 14:50:07 http://professionals.nl/
5663784 sportprofessionals.nl 200 2026-08-27 14:50:06 http://sportprofessionals.nl/
5663781 www.sportprofessionals.nl 200 2026-08-27 14:50:06 http://www.sportprofessionals.nl/
5663780 int.urokimusic.com 200 2026-08-27 14:50:03 http://int.urokimusic.com/
5663778 int.urokimusic.com 200 2026-08-27 14:49:54 https://int.urokimusic.com/
5663769 agenciaili.com.br 200 2026-08-27 14:49:04 https://agenciaili.com.br/
5663763 wpspeedy.pay.clickbank.net 200 2026-08-27 14:48:53 https://wpspeedy.pay.clickbank.net/
5663757 printsmakeprofits.com 200 2026-08-27 14:48:44 http://printsmakeprofits.com/
5663756 stuart-turnbull.com 200 2026-08-27 14:48:43 http://stuart-turnbull.com/
5663752 about.fxstreet.com 200 2026-08-27 14:48:03 https://about.fxstreet.com/
5663751 tradingstudio.fxstreet.com 200 2026-08-27 14:48:00 https://tradingstudio.fxstreet.com/
5663740 www.lastminutetravel.com 200 2026-08-27 14:46:34 http://www.lastminutetravel.com/
5663736 news.cathaypacific.com 200 2026-08-27 14:46:23 https://news.cathaypacific.com/
5663729 www.nachi.org 403 2026-08-27 14:46:13 http://www.nachi.org/
5663728 iac2.org 200 2026-08-27 14:46:12 http://iac2.org/
5663727 app.spectora.com 200 2026-08-27 14:46:07 http://app.spectora.com/
5663716 www.welingelichtekringen.nl 200 2026-08-27 14:43:31 https://www.welingelichtekringen.nl/
5663706 wbpolice.gov.in 200 2026-08-27 14:42:59 https://wbpolice.gov.in/
5663705 www.antuit.ai 200 2026-08-27 14:42:55 https://www.antuit.ai/
5663703 www.realization.com 200 2026-08-27 14:42:46 https://www.realization.com/
5663702 www.forecasthorizon.com 200 2026-08-27 14:42:45 https://www.forecasthorizon.com/
5663699 www.carterhospitality.com 403 2026-08-27 14:41:03 https://www.carterhospitality.com/
5663698 www.cartercreek.com 200 2026-08-27 14:41:00 https://www.cartercreek.com/
5663697 www.carterestatewinery.com 200 2026-08-27 14:40:58 https://www.carterestatewinery.com/
5663682 www.geschichte.fm 200 2026-08-27 14:40:22 https://www.geschichte.fm/
5663681 forschergeist.de 200 2026-08-27 14:40:21 https://forschergeist.de/
5663680 einschlafen-podcast.de 200 2026-08-27 14:40:21 http://einschlafen-podcast.de/
5663678 www.cleanelectric.de 200 2026-08-27 14:40:19 https://www.cleanelectric.de/
5663677 lyle151.blogspot.com 200 2026-08-27 14:40:18 https://lyle151.blogspot.com/
5663676 charleysmuckles.blogspot.com 200 2026-08-27 14:40:17 https://charleysmuckles.blogspot.com/
5663675 emerillg.blogspot.com 200 2026-08-27 14:40:16 https://emerillg.blogspot.com/
5663674 corneliusbear.blogspot.com 200 2026-08-27 14:40:14 https://corneliusbear.blogspot.com/
5663673 shop.achewood.com 200 2026-08-27 14:40:14 https://shop.achewood.com/
5663671 hr.wanmei.com 404 2026-08-27 14:40:09 https://hr.wanmei.com/
5663663 ecoledujeu.com 200 2026-08-27 14:39:50 https://ecoledujeu.com/
5663662 cours-simon.com 200 2026-08-27 14:39:49 https://cours-simon.com/
5663661 groupe-aicom.fr 200 2026-08-27 14:39:46 https://groupe-aicom.fr/
5663656 www.heijmans.nl 200 2026-08-27 14:39:33 https://www.heijmans.nl/
5663651 www.werkenbijheijmans.nl 200 2026-08-27 14:39:33 https://www.werkenbijheijmans.nl/
5663634 kurdvahedgas.ir 200 2026-08-27 14:37:46 https://kurdvahedgas.ir/
5663629 intl.alzahra.ac.ir 200 2026-08-27 14:37:24 https://intl.alzahra.ac.ir/
5663620 www.karasu-keden.kz 404 2026-08-27 14:35:11 http://www.karasu-keden.kz/
5663619 www.juldyzkenan.kz 200 2026-08-27 14:35:11 https://www.juldyzkenan.kz/
5663618 www.1001baby.kz 404 2026-08-27 14:35:10 http://www.1001baby.kz/
5663617 www.obuvenok.kz 404 2026-08-27 14:35:10 http://www.obuvenok.kz/
5663616 aih.kz 200 2026-08-27 14:35:09 https://aih.kz/
5663615 www.anticrisis.kz 200 2026-08-27 14:35:06 https://www.anticrisis.kz/
5663612 sachnoi.vip 403 2026-08-27 14:33:37 https://sachnoi.vip/
5663603 info.ufstech.com 404 2026-08-27 14:33:24 https://info.ufstech.com/
5663602 thesafe.navanta.com 200 2026-08-27 14:33:22 https://thesafe.navanta.com/
5663601 ufstech.com 200 2026-08-27 14:33:20 https://ufstech.com/
5663595 www.amcharts.com 200 2026-08-27 14:30:34 https://www.amcharts.com/
5663594 datamarketer.co 200 2026-08-27 14:30:32 https://datamarketer.co/
5663583 www.sportwettenoesterreich.at 200 2026-08-27 14:29:00 https://www.sportwettenoesterreich.at/
5663582 himalayatravels.in.net 200 2026-08-27 14:28:59 https://himalayatravels.in.net/
5663581 www.taxi-weratschnig.at 404 2026-08-27 14:28:56 https://www.taxi-weratschnig.at/
5663580 www.onlinecasinososterreich.at 200 2026-08-27 14:28:56 https://www.onlinecasinososterreich.at/
5663579 www.digi-tel.at 200 2026-08-27 14:28:52 https://www.digi-tel.at/
5663558 www.management-mb.de 200 2026-08-27 14:26:20 https://www.management-mb.de/
5663551 www.ctkala.com 200 2026-08-27 14:24:40 https://www.ctkala.com/
5663544 www.eucaristiadiaria.cl 200 2026-08-27 14:24:07 https://www.eucaristiadiaria.cl/
5663543 www.bonuszkodok.net 200 2026-08-27 14:24:04 https://www.bonuszkodok.net/
5663542 hbfocikupa.hu 200 2026-08-27 14:24:03 https://hbfocikupa.hu/
5663541 sztartipp.hu 200 2026-08-27 14:24:01 https://sztartipp.hu/
5663535 www.studioveena.com 200 2026-08-27 14:23:52 https://www.studioveena.com/
5663528 secure.roomcloud.net 200 2026-08-27 14:23:46 https://secure.roomcloud.net/
5663519 daiwa-es.co.jp 200 2026-08-27 14:23:25 https://daiwa-es.co.jp/
5663515 ecos.fws.gov 200 2026-08-27 14:23:05 https://ecos.fws.gov/
5663514 dlnr.hawaii.gov 200 2026-08-27 14:23:03 https://dlnr.hawaii.gov/
5663507 einvestingforbeginners.kit.com 200 2026-08-27 14:22:38 https://einvestingforbeginners.kit.com/
5663506 valuespotlight.com 200 2026-08-27 14:22:35 https://valuespotlight.com/
5663502 www.gewacloud.com 200 2026-08-27 14:22:11 https://www.gewacloud.com/
5663501 youngdrummeroftheyear.co.uk 200 2026-08-27 14:22:05 http://youngdrummeroftheyear.co.uk/
5663493 www.mmsd.com 200 2026-08-27 14:21:59 https://www.mmsd.com/
5663488 dianagarland.tumblr.com 404 2026-08-27 14:21:55 https://dianagarland.tumblr.com/
5663471 vintageclothingtime.blogspot.com 200 2026-08-27 14:20:21 https://vintageclothingtime.blogspot.com/
5663459 registrace.odnoklassniki.com 200 2026-08-27 14:19:42 https://registrace.odnoklassniki.com/
5663457 test.euroclassmates.eu 200 2026-08-27 14:19:42 https://test.euroclassmates.eu/
5663456 test.spoluziaci.sk 200 2026-08-27 14:19:41 https://test.spoluziaci.sk/
5663455 www.apolloduck.be 200 2026-08-27 14:19:37 https://www.apolloduck.be/
5663453 www.apolloduck.ae 200 2026-08-27 14:19:35 https://www.apolloduck.ae/
5663452 www.apolloduck.asia 200 2026-08-27 14:19:34 https://www.apolloduck.asia/
5663451 www.apolloduck.co.za 200 2026-08-27 14:19:33 https://www.apolloduck.co.za/
5663421 akqa-italy-fondazione-unicredit-develop.vercel.app 404 2026-08-27 14:14:51 https://akqa-italy-fondazione-unicredit-develop.vercel.app/
5663415 www.romaforever.it 200 2026-08-27 14:14:44 https://www.romaforever.it/
5663408 nistdigitalarchives.contentdm.oclc.org 200 2026-08-27 14:14:01 https://nistdigitalarchives.contentdm.oclc.org/
5663407 www.manufacturingusa.com 200 2026-08-27 14:13:59 https://www.manufacturingusa.com/
5663395 www.gorillasushilogansq.com 200 2026-08-29 20:54:22 https://www.gorillasushilogansq.com/
5663391 www.medicalmarijuanaprocon.org 200 2026-09-03 15:46:18 https://www.medicalmarijuanaprocon.org/
5663384 www.benechicken.cafe 200 2026-08-27 14:12:29 https://www.benechicken.cafe/
5663383 demoslot17.benechicken.cafe 200 2026-08-27 14:12:27 https://demoslot17.benechicken.cafe/
5663378 basvuru.antalyaff.com 200 2026-08-27 14:11:06 https://basvuru.antalyaff.com/
5663356 www.steinershopping.de 200 2026-08-27 14:10:28 https://www.steinershopping.de/
5663354 www.steinershopping-moebel.de 200 2026-08-27 14:10:26 https://www.steinershopping-moebel.de/
5663348 support.mparticle.com 200 2026-08-27 14:09:06 https://support.mparticle.com/
5663340 www.managedserver-vergleich.de 200 2026-08-27 14:08:29 https://www.managedserver-vergleich.de/
5663334 gapa77.forward-site.com 404 2026-08-27 14:08:08 https://gapa77.forward-site.com/
5663333 feeds4all.nl 200 2026-08-27 14:08:07 http://feeds4all.nl/
5663322 www.visaeurope.es 200 2026-08-27 14:07:45 https://www.visaeurope.es/